Regional Weather Roundup
Issued by NWS

Home | Current Version | Previous Version | Text Only | Print | Product List | Glossary On
Versions: 1 2 3 4 5 6 7 8 9 10 11 12 13 14 15 16 17 18 19 20 21 22 23 24 25 26 27 28 29 30 31 32 33 34 35 36 37 38 39 40 41 42 43 44 45 46 47 48 49 50
000
ASUS44 KFWD 291603
RWRTX
NORTH TEXAS HOURLY WEATHER ROUNDUP
NATIONAL WEATHER SERVICE FORT WORTH TX
1100 AM CDT FRI JUL 29 2016

NOTE: "FAIR" INDICATES FEW OR NO CLOUDS BELOW 12,000 FEET WITH NO
SIGNIFICANT WEATHER AND/OR OBSTRUCTIONS TO VISIBILITY.

TXZ118-119-291700-
DALLAS/FORT WORTH METROPLEX

CITY           SKY/WX    TMP DP  RH WIND       PRES   REMARKS
DFW AIRPORT    MOSUNNY   88  70  55 SW9       30.02S HX  93
DALLAS LOVE    MOSUNNY   87  71  58 SW9       30.01F HX  93
FTW MEACHAM    MOSUNNY   88  69  53 SW12      30.03R HX  92
DAL-EXECUTIVE  SUNNY     85  70  60 VRB7G16   30.02F
FTW-ALLIANCE   PTSUNNY   86  70  58 SW9       30.02S HX  90
FTW-NAS-JRB    MOSUNNY   88  68  51 W14       30.03S HX  91
FTW-SPINKS     MOSUNNY   88  70  55 S12       30.05F HX  92
ARLINGTON      SUNNY     86  70  58 S8        30.03F HX  90
GRAND PRAIRIE  SUNNY     86  68  54 S12       30.04F
ADDISON        MOSUNNY   86  70  58 SW8       30.02F HX  90
MESQUITE       SUNNY     86  72  62 SW10G17   30.02F HX  92
LANCASTER      MOSUNNY   88  72  59 S12       30.04S HX  94
$$

TXZ091>094-102>105-117-120-121-131>134-291700-
NORTH CENTRAL TEXAS

CITY           SKY/WX    TMP DP  RH WIND       PRES   REMARKS
SHRMAN/DENISON CLOUDY    86  74  66 W10       30.05R HX  94
BOWIE          PTSUNNY   83  69  63 NE15      30.06F
BRIDGEPORT     CLOUDY    84  71  65 W8        30.05S
DECATUR        CLOUDY    81  70  68 W5        30.06R
DENTON         MOSUNNY   86  71  60 W10       30.02S HX  91
MCKINNEY       PTSUNNY   87  70  56 W9        30.02S HX  92
GREENVILLE     SUNNY     88  68  51 SW12G17   30.02F HX  91
ROCKWALL       SUNNY     86  72  62 SW17      30.02S HX  92
TERRELL        SUNNY     86  73  65 SW15G21   30.03F HX  93
WAXAHACHIE     CLOUDY    83  73  71 S14       30.05S
CLEBURNE       CLOUDY    81  73  78 S9        30.07S
GRANBURY       MOSUNNY   89  69  51 SW7       30.05S HX  93
$$

TXZ083>090-098>101-113>116-127>130-139>142-154-155-291700-
WESTERN NORTH TEXAS

CITY           SKY/WX    TMP DP  RH WIND       PRES   REMARKS
WICHITA FALLS  MOSUNNY   84  63  49 NE21G26   30.08R
WF-KICKAPOO    MOSUNNY   84  62  47 MISG      30.09R
VERNON           N/A    N/A N/A N/A NE17      30.10S
ABILENE        SUNNY     85  67  54 SW8       30.09F
ABILENE-DYESS  MOSUNNY   87  69  53 W7        30.07F HX  91
CISCO          SUNNY     86  68  54 W14G20    30.08F HAZE
BRECKENRIDGE   SUNNY     89  68  49 W8        30.05S HX  92
GRAHAM         MOSUNNY   87  68  53 W9        30.04R HX  90
MINERAL WELLS  MOSUNNY   87  70  56 W9        30.03S HX  92
STEPHENVILLE   CLOUDY    84  68  59 SW8       30.10S
COMANCHE       CLOUDY    81  69  68 SW7       30.09S
BROWNWOOD      CLOUDY    82  68  61 SW9       30.09S
COLEMAN        CLOUDY    82  67  59 SW6       30.10S
$$

TXZ143>147-156>162-174-175-291700-
CENTRAL TEXAS

CITY           SKY/WX    TMP DP  RH WIND       PRES   REMARKS
WACO           CLOUDY    85  72  65 S5        30.07R HX  91
WACO-TSTC      SUNNY     82  73  74 W5        30.07
WACO-MCGREGOR  MOSUNNY   89  74  60 CALM      30.07  HX  98
HILLSBORO      CLOUDY    80  71  74 S9        30.07S
CORSICANA      CLOUDY    80  75  84 S8        30.08S
MEXIA          CLOUDY    83  75  76 SW6       30.07F HX  90
HEARNE         PTSUNNY   86  73  65 S7        30.07S HX  93
CAMERON        CLOUDY    84  73  69 SW6       30.07R HX  91
TEMPLE         CLOUDY    87  72  60 SW12      30.07R HX  93
KILLEEN        PTSUNNY   84  71  63 SW6       30.07R
KILLEEN-SKYLRK   N/A     86  73  65 VRB6      30.07S HX  93
FORT HOOD      CLOUDY    85  70  62 SW5       30.05S
GATESVILLE     CLOUDY    84  72  65 CALM      30.10R
HAMILTON       CLOUDY    83  68  60 W7        30.10S
LAMPASAS       PTSUNNY   85  72  64 SW6       30.08R HX  91
$$

TXZ095>097-106>112-122>126-135>138-148>153-164>167-291700-
EAST TEXAS

CITY           SKY/WX    TMP DP  RH WIND       PRES   REMARKS
PARIS          SUNNY     86  68  54 SW10      30.02S
SULPHUR SPRNGS SUNNY     87  72  59 SW15      30.03F HX  93
MOUNT PLEASANT SUNNY     87  73  61 SW14G22   30.03F HX  94
GILMER         MOSUNNY   83  75  76 SW7G16    30.04S HX  90
MINEOLA        MOSUNNY   88  75  66 S10       30.04F HX  97
TYLER          CLOUDY    85  75  72 SW13      30.06S HX  93
LONGVIEW       PTSUNNY   84  76  76 SW9       30.04F HX  93
MARSHALL       PTSUNNY   80  73  80 SW8       30.07F
ATHENS         DRIZZLE   77  77 100 CALM      30.05F
PALESTINE      CLOUDY    81  76  84 SW8       30.09S
JACKSONVILLE   CLOUDY    81  77  89 SW6       30.10S
HENDERSON      CLOUDY    80  76  88 SW3       30.08S
CENTER         CLOUDY    84  79  84 SW5       30.08S HX  95
NACOGDOCHES    CLOUDY   N/A N/A N/A SW7       30.06S
LUFKIN         CLOUDY    81  76  84 SW5       30.08R
$$

SUPPLEMENTAL OBSERVATIONS (CENTRAL)

CITY           SKY/WX    TMP DP  RH WIND       PRES   REMARKS
$$

SUPPLEMENTAL OBSERVATIONS (WEST)

CITY           SKY/WX    TMP DP  RH WIND       PRES   REMARKS
$$

SUPPLEMENTAL OBSERVATIONS (EAST)

CITY           SKY/WX    TMP DP  RH WIND       PRES   REMARKS
$$

SUPPLEMENTAL OBSERVATIONS ARE A COLLECTION OF AUTOMATED INSTRUMENTS
THAT ARE MAINTAINED BY A VARIETY OF FEDERAL AND STATE AGENCIES.
CERTAIN ELEMENTS...SUCH AS HUMIDITY VALUES AND SUSTAINED WIND
SPEEDS...MAY BE APPROXIMATED.





USA.gov is the U.S. government's official web portal to all federal, state and local government web resources and services.